• en France
  • Liste des pays
  • À 7 jours
  • Température de l'eau
  • Carte satellitaire
  • Carte météo
  • Widgets météo
  • user-avatar
    Se connecter

    Météo par heure à Shirino

    Ce jour, 23 Septembre, Dimanche

    Heure Température Précipitation Vent Pression Humidité
    00:00 +17°C° 0 mm 5 m/s 750 mmHg 67%
    01:00 +17°C° 0 mm 5 m/s 750 mmHg 68%
    02:00 +16°C° 0 mm 5 m/s 749 mmHg 69%
    03:00 +15°C° 0 mm 4 m/s 749 mmHg 75%
    04:00 +15°C° 0 mm 4 m/s 748 mmHg 74%
    05:00 +15°C° 0 mm 5 m/s 748 mmHg 73%
    06:00 +15°C° 0 mm 6 m/s 747 mmHg 73%
    07:00 +17°C° 0 mm 6 m/s 747 mmHg 68%
    08:00 +18°C° 0 mm 7 m/s 747 mmHg 64%
    09:00 +20°C° 0 mm 8 m/s 746 mmHg 59%
    10:00 +21°C° 0 mm 8 m/s 746 mmHg 57%
    11:00 +22°C° 0 mm 8 m/s 746 mmHg 54%
    12:00 +23°C° 0 mm 8 m/s 746 mmHg 51%
    13:00 +21°C° 0.3 mm 7 m/s 746 mmHg 58%
    14:00 +18°C° 0.3 mm 7 m/s 746 mmHg 65%
    15:00 +15°C° 0 mm 6 m/s 746 mmHg 72%
    16:00 +14°C° 0.5 mm 5 m/s 746 mmHg 76%
    17:00 +12°C° 0.5 mm 5 m/s 746 mmHg 80%
    18:00 +11°C° 0.5 mm 4 m/s 747 mmHg 84%
    19:00 +10°C° 0.6 mm 4 m/s 747 mmHg 85%
    20:00 +10°C° 0.6 mm 4 m/s 747 mmHg 86%
    21:00 +10°C° 0.6 mm 4 m/s 747 mmHg 87%
    22:00 +10°C° 0.2 mm 3 m/s 747 mmHg 87%
    23:00 +10°C° 0.2 mm 3 m/s 747 mmHg 88%

    Demain, 24 Septembre, Lundi

    Heure Température Précipitation Vent Pression Humidité
    00:00 +10°C° 0.2 mm 3 m/s 748 mmHg 88%
    01:00 +9°C° 0 mm 3 m/s 748 mmHg 89%
    02:00 +9°C° 0 mm 3 m/s 748 mmHg 90%
    03:00 +8°C° 0 mm 3 m/s 748 mmHg 91%
    04:00 +8°C° 0 mm 3 m/s 748 mmHg 92%
    05:00 +8°C° 0 mm 3 m/s 748 mmHg 93%
    06:00 +7°C° 0 mm 3 m/s 748 mmHg 94%
    07:00 +9°C° 0 mm 3 m/s 748 mmHg 88%
    08:00 +10°C° 0 mm 3 m/s 749 mmHg 83%
    09:00 +11°C° 0 mm 3 m/s 749 mmHg 78%
    10:00 +13°C° 0 mm 4 m/s 749 mmHg 71%
    11:00 +14°C° 0 mm 4 m/s 748 mmHg 64%
    12:00 +15°C° 0 mm 4 m/s 748 mmHg 56%
    13:00 +15°C° 0 mm 5 m/s 748 mmHg 55%
    14:00 +15°C° 0 mm 5 m/s 748 mmHg 55%
    15:00 +15°C° 0 mm 6 m/s 747 mmHg 54%
    16:00 +14°C° 0.4 mm 5 m/s 747 mmHg 60%
    17:00 +13°C° 0.4 mm 4 m/s 746 mmHg 66%
    18:00 +12°C° 0.4 mm 4 m/s 746 mmHg 72%
    19:00 +12°C° 1 mm 5 m/s 745 mmHg 75%
    20:00 +11°C° 1 mm 6 m/s 745 mmHg 77%
    21:00 +10°C° 1 mm 7 m/s 744 mmHg 80%
    22:00 +10°C° 0.5 mm 8 m/s 743 mmHg 79%
    23:00 +10°C° 0.5 mm 8 m/s 742 mmHg 79%

    Après-demain, 25 Septembre, Mardi

    Heure Température Précipitation Vent Pression Humidité
    00:00 +10°C° 0.5 mm 9 m/s 741 mmHg 79%
    01:00 +10°C° 0.4 mm 9 m/s 740 mmHg 80%
    02:00 +10°C° 0.4 mm 8 m/s 740 mmHg 81%
    03:00 +10°C° 0.4 mm 8 m/s 739 mmHg 83%
    04:00 +10°C° 0.3 mm 7 m/s 739 mmHg 83%
    05:00 +9°C° 0.3 mm 7 m/s 739 mmHg 83%
    06:00 +9°C° 0.3 mm 6 m/s 739 mmHg 84%
    07:00 +9°C° 0 mm 6 m/s 739 mmHg 81%
    08:00 +9°C° 0 mm 7 m/s 739 mmHg 79%
    09:00 +9°C° 0 mm 7 m/s 739 mmHg 76%
    10:00 +9°C° 0 mm 7 m/s 739 mmHg 75%
    11:00 +9°C° 0 mm 8 m/s 740 mmHg 73%
    12:00 +10°C° 0 mm 8 m/s 740 mmHg 71%
    13:00 +10°C° 0.1 mm 8 m/s 741 mmHg 71%
    14:00 +9°C° 0.1 mm 8 m/s 741 mmHg 72%
    15:00 +9°C° 0.1 mm 8 m/s 741 mmHg 72%
    16:00 +9°C° 0.1 mm 7 m/s 742 mmHg 73%
    17:00 +8°C° 0.1 mm 7 m/s 743 mmHg 74%
    18:00 +8°C° 0.1 mm 7 m/s 743 mmHg 75%
    19:00 +6°C° 0.2 mm 7 m/s 744 mmHg 76%
    20:00 +6°C° 0.2 mm 7 m/s 744 mmHg 78%
    21:00 +6°C° 0.2 mm 7 m/s 745 mmHg 79%
    22:00 +6°C° 0.1 mm 7 m/s 746 mmHg 79%
    23:00 +6°C° 0.1 mm 7 m/s 746 mmHg 79%

    26 Septembre, Mercredi

    Heure Température Précipitation Vent Pression Humidité
    00:00 +5°C° 0.1 mm 6 m/s 747 mmHg 79%
    01:00 +5°C° 0 mm 6 m/s 748 mmHg 80%
    02:00 +5°C° 0 mm 6 m/s 749 mmHg 81%
    03:00 +5°C° 0 mm 5 m/s 750 mmHg 81%
    04:00 +5°C° 0 mm 5 m/s 750 mmHg 83%
    05:00 +3°C° 0 mm 5 m/s 751 mmHg 84%
    06:00 +3°C° 0 mm 5 m/s 752 mmHg 85%
    07:00 +3°C° 0 mm 5 m/s 752 mmHg 80%
    08:00 +5°C° 0 mm 5 m/s 753 mmHg 75%
    09:00 +5°C° 0 mm 5 m/s 754 mmHg 70%
    10:00 +6°C° 0 mm 5 m/s 754 mmHg 65%
    11:00 +7°C° 0 mm 5 m/s 755 mmHg 60%
    12:00 +8°C° 0 mm 5 m/s 755 mmHg 55%
    13:00 +8°C° 0 mm 5 m/s 755 mmHg 52%
    14:00 +9°C° 0 mm 5 m/s 755 mmHg 49%
    15:00 +10°C° 0 mm 4 m/s 756 mmHg 47%
    16:00 +8°C° 0 mm 4 m/s 756 mmHg 50%
    17:00 +8°C° 0 mm 3 m/s 756 mmHg 54%
    18:00 +7°C° 0 mm 3 m/s 756 mmHg 57%
    19:00 +5°C° 0 mm 3 m/s 756 mmHg 59%
    20:00 +4°C° 0 mm 3 m/s 756 mmHg 62%
    21:00 +4°C° 0 mm 3 m/s 756 mmHg 64%
    22:00 +4°C° 0 mm 3 m/s 756 mmHg 65%
    23:00 +4°C° 0 mm 4 m/s 755 mmHg 65%

    27 Septembre, Jeudi

    Heure Température Précipitation Vent Pression Humidité
    00:00 +4°C° 0 mm 4 m/s 755 mmHg 66%
    01:00 +3°C° 0 mm 5 m/s 754 mmHg 66%
    02:00 +3°C° 0 mm 5 m/s 754 mmHg 66%
    03:00 +3°C° 0 mm 5 m/s 753 mmHg 66%
    04:00 +3°C° 0 mm 6 m/s 753 mmHg 67%
    05:00 +3°C° 0 mm 6 m/s 752 mmHg 67%
    06:00 +4°C° 0 mm 7 m/s 751 mmHg 67%
    07:00 +4°C° 0.5 mm 7 m/s 750 mmHg 69%
    08:00 +4°C° 0.5 mm 8 m/s 750 mmHg 70%
    09:00 +3°C° 0.5 mm 9 m/s 749 mmHg 72%
    10:00 +5°C° 1.1 mm 9 m/s 748 mmHg 74%
    11:00 +5°C° 1.1 mm 9 m/s 748 mmHg 77%
    12:00 +5°C° 1.1 mm 9 m/s 747 mmHg 79%
    13:00 +5°C° 1 mm 9 m/s 747 mmHg 81%
    14:00 +5°C° 1 mm 8 m/s 747 mmHg 82%
    15:00 +5°C° 1 mm 8 m/s 747 mmHg 84%
    16:00 +5°C° 0.1 mm 7 m/s 747 mmHg 85%
    17:00 +6°C° 0.1 mm 7 m/s 747 mmHg 85%
    18:00 +7°C° 0.1 mm 6 m/s 747 mmHg 86%
    19:00 +7°C° 0 mm 6 m/s 747 mmHg 87%
    20:00 +7°C° 0 mm 5 m/s 747 mmHg 87%
    21:00 +7°C° 0 mm 5 m/s 747 mmHg 88%
    22:00 +7°C° 0 mm 5 m/s 747 mmHg 89%
    23:00 +7°C° 0 mm 5 m/s 748 mmHg 91%

    28 Septembre, Vendredi

    Heure Température Précipitation Vent Pression Humidité
    00:00 +7°C° 0 mm 5 m/s 748 mmHg 92%
    01:00 +7°C° 0 mm 4 m/s 748 mmHg 93%
    02:00 +7°C° 0 mm 4 m/s 748 mmHg 94%
    03:00 +7°C° 0 mm 3 m/s 749 mmHg 95%
    04:00 +7°C° 0 mm 3 m/s 749 mmHg 96%
    05:00 +7°C° 0 mm 3 m/s 748 mmHg 96%
    06:00 +7°C° 0 mm 3 m/s 748 mmHg 96%
    07:00 +7°C° 0 mm 4 m/s 748 mmHg 93%
    08:00 +8°C° 0 mm 5 m/s 748 mmHg 89%
    09:00 +9°C° 0 mm 6 m/s 747 mmHg 86%
    10:00 +10°C° 0 mm 7 m/s 746 mmHg 83%
    11:00 +11°C° 0 mm 8 m/s 746 mmHg 81%
    12:00 +12°C° 0 mm 9 m/s 745 mmHg 79%
    13:00 +12°C° 0 mm 9 m/s 745 mmHg 78%
    14:00 +13°C° 0 mm 9 m/s 744 mmHg 78%
    15:00 +13°C° 0 mm 9 m/s 744 mmHg 77%
    16:00 +13°C° 0.4 mm 9 m/s 744 mmHg 78%
    17:00 +13°C° 0.4 mm 9 m/s 744 mmHg 79%
    18:00 +13°C° 0.4 mm 9 m/s 743 mmHg 79%
    19:00 +11°C° 0.2 mm 8 m/s 745 mmHg 78%
    20:00 +9°C° 0.2 mm 7 m/s 746 mmHg 76%
    21:00 +7°C° 0.2 mm 6 m/s 747 mmHg 75%
    22:00 +6°C° 0 mm 5 m/s 748 mmHg 78%
    23:00 +5°C° 0 mm 4 m/s 749 mmHg 80%
    Voir plus